sat.trackr.live / text

‹ back to catalog

HORN-L

NORAD 69505 · 2026-132D

PAYLOAD ACTIVE UNKNOWN

§ Identity

Operator
Country
JPN
Launch date
2026-06-12
Launch site
TANSC
Launch vehicle
Mass (kg)
RCS (m²)

External: N2YO · Heavens-Above · Gunter

§ Orbital elements

Epoch: 2026-08-26T03:09:37.183968Z

Period
91.21 min
Inclination
97.6680°
Eccentricity
0.0020976
Mean motion
15.78722435 rev/d
Perigee alt
320.0 km
Apogee alt
348.1 km
Semi-major
6,712.2 km
B*
3.8270e-2
RAAN
303.2498°
Arg perigee
277.1180°
Mean anomaly
82.7701°
Rev number
1,139

§ Raw data

HORN-L1 69505U 26132D   26238.13168037  .08374329  00000+0  38270-1 0  99952 69505  97.6680 303.2498 0020976 277.1180  82.7701 15.78722435 11395

JSON: /api/v1/satellites/69505 · /tle

For live sub-satellite position, see the globe view (requires WebGL).

§ Visibility from observer

Set your observer location to see the next 7 days of passes ≥ 10°. The values pass through the URL so the page stays shareable.

No JS? Fill the form by hand. The geolocation button needs JavaScript.